Theta_e
329 334 335 335 335 334 332 330 330 331 328 327 327 326 325 324 323 323 325 338 351 353 354 355 354 353 352 351 351 351 351 350 349 350 350 349 348 347 347 348 348 348 346 346 347 346 346 346 346 346 346 346 345 343 341 340 337 336 338 339 339 339 341 343 344 346 347 347 346 345 344 342 343 347 348 349 350 347 341 339 342 342 342 342 343 344
329 334 336 335 334 333 331 329 329 329 328 328 327 326 326 324 325 325 323 332 348 352 352 353 353 353 351 351 352 350 350 350 350 350 350 349 349 347 347 348 348 348 347 347 347 346 346 346 346 346 346 346 346 345 342 341 339 336 337 339 338 339 340 342 342 343 345 345 343 340 338 339 342 347 347 348 349 347 343 340 341 341 343 342 343 344
332 333 333 332 330 329 329 329 328 328 328 328 327 325 324 325 325 327 325 329 344 352 351 352 352 352 352 351 351 351 351 350 349 349 350 349 349 348 347 348 348 348 348 348 347 347 346 346 346 346 347 346 345 345 343 342 340 337 336 337 338 339 340 341 339 340 343 343 341 338 336 338 341 346 347 348 348 348 346 344 341 340 342 343 343 343
332 333 332 328 327 328 329 328 327 328 327 327 327 325 324 325 322 324 325 328 342 351 350 352 352 352 353 353 352 351 350 350 349 349 349 350 349 349 348 347 348 349 348 348 348 347 347 345 346 346 346 347 346 345 344 343 342 339 336 336 338 338 338 339 338 338 340 342 342 341 341 342 344 347 348 348 347 347 347 347 344 340 342 343 343 343
331 332 329 326 326 328 328 328 327 327 328 327 327 325 325 326 322 322 323 324 331 338 345 351 350 352 355 353 354 352 351 350 349 349 349 349 349 349 349 347 348 348 349 349 349 348 347 346 346 346 346 346 346 345 344 343 343 342 338 335 336 337 337 337 337 337 340 343 344 344 345 346 348 349 348 347 346 345 344 344 342 340 342 343 344 343
329 327 325 326 328 326 326 327 327 326 327 326 326 326 326 326 325 324 323 321 319 323 338 348 344 349 355 353 354 353 352 353 350 349 349 348 349 349 349 348 348 348 349 349 349 349 348 347 346 345 345 346 345 345 344 343 343 343 340 336 334 336 336 336 336 337 340 343 342 342 344 346 348 349 346 343 343 342 341 340 339 338 339 340 343 344
327 324 323 326 327 326 326 326 326 326 325 324 327 328 326 325 325 323 321 320 319 324 340 349 346 348 350 349 354 353 353 354 351 350 349 348 349 349 348 348 348 348 348 349 349 349 348 347 346 344 345 345 346 345 344 344 343 344 343 339 335 334 335 335 335 336 339 341 341 340 340 340 342 344 342 340 339 339 338 337 337 338 337 336 339 342
323 322 324 324 324 325 325 325 325 326 324 324 327 326 325 324 322 322 321 319 322 331 347 353 351 352 348 347 352 354 354 355 354 353 350 349 350 349 349 348 348 348 348 349 348 349 349 347 346 345 345 345 346 345 344 344 344 344 344 342 337 333 334 335 335 335 338 340 339 338 338 338 339 339 338 338 338 338 338 337 339 341 339 334 335 339
320 320 323 324 322 323 325 326 326 325 324 326 326 325 324 323 323 324 321 321 325 331 340 347 347 349 349 350 352 353 354 354 355 353 351 350 349 349 350 349 349 349 348 348 349 349 349 348 347 346 345 345 345 345 344 344 344 344 345 344 340 334 334 334 334 334 336 338 338 337 338 337 338 339 339 338 338 338 338 337 339 341 339 334 332 336
317 318 321 321 321 323 325 326 325 324 326 325 324 324 324 324 325 326 323 321 321 321 326 336 340 341 344 348 351 352 352 352 353 352 350 350 349 350 350 349 349 349 348 348 348 348 349 349 347 346 345 345 345 344 344 345 345 345 346 345 342 336 334 334 334 333 335 337 338 338 337 336 338 338 339 339 338 338 338 337 338 339 339 336 331 332
316 316 318 318 320 321 322 323 322 323 325 323 324 323 323 326 326 331 336 328 318 319 325 330 335 339 339 340 347 350 350 351 352 351 350 350 350 350 350 350 350 349 349 348 347 348 348 348 347 347 346 345 344 345 344 345 345 345 345 346 344 339 335 335 335 334 333 335 337 337 336 336 336 337 337 337 336 335 336 336 336 335 336 335 332 330
318 318 318 317 317 316 319 321 319 319 321 321 326 324 322 328 327 328 335 325 315 324 334 331 331 336 336 337 343 348 348 349 350 350 350 350 351 350 350 351 350 349 349 349 348 348 347 348 347 347 346 345 345 345 345 345 345 345 346 346 345 342 338 336 337 336 334 334 335 335 335 335 335 335 335 334 332 331 332 333 334 333 334 335 333 332
319 318 316 315 316 314 316 319 316 318 321 319 325 325 321 326 324 322 327 323 319 326 330 325 325 330 334 335 339 345 347 346 347 348 348 349 350 351 350 350 351 350 349 349 349 348 347 347 347 347 346 345 345 345 345 345 345 346 346 346 345 344 341 338 338 339 336 333 333 334 334 334 334 334 333 331 330 330 329 330 332 332 332 333 333 332
319 318 316 315 315 315 314 315 314 317 321 318 323 325 321 323 321 321 327 324 321 323 323 321 321 323 325 328 333 340 343 345 346 346 347 348 350 351 351 352 351 351 350 350 349 349 348 347 346 347 346 346 346 345 346 346 345 346 346 346 346 345 344 340 338 339 338 334 332 332 333 333 333 332 330 329 329 330 329 329 331 330 330 331 331 330
317 317 316 314 314 314 315 314 313 314 315 317 322 323 324 326 324 324 326 322 321 323 321 318 319 321 320 325 332 330 332 341 344 345 347 346 348 350 351 352 351 351 351 351 350 349 348 348 347 347 346 346 346 346 346 346 346 346 346 346 346 345 345 343 340 338 337 335 332 332 332 332 331 330 329 329 328 329 331 331 330 330 329 329 330 328
316 316 315 314 313 314 315 314 314 315 316 319 323 321 321 323 322 323 326 327 325 322 321 320 321 326 325 326 330 325 324 332 338 343 346 344 347 350 351 352 351 352 351 350 351 350 349 349 348 347 347 347 347 346 346 346 346 347 346 346 346 345 345 344 342 340 337 335 333 332 331 331 331 330 329 328 328 330 332 333 332 331 328 328 329 329
316 318 315 314 315 314 313 314 314 315 318 320 321 319 318 317 318 321 325 329 325 319 323 324 321 327 328 324 327 330 332 333 335 341 344 344 347 348 351 352 351 351 351 351 351 350 350 350 349 349 347 347 347 346 347 346 346 347 347 347 346 345 345 344 344 343 340 337 334 332 331 331 331 330 329 328 328 330 331 331 332 332 329 327 328 329
313 317 315 313 316 315 312 315 315 313 315 318 317 317 318 320 322 323 322 325 324 320 326 325 318 324 327 323 327 332 335 338 339 339 339 341 345 348 350 351 351 352 351 351 351 350 350 350 349 349 348 348 347 347 347 347 346 347 346 347 346 346 346 345 344 345 343 341 337 334 331 331 331 330 330 329 329 329 329 329 330 330 329 328 328 328
312 316 316 313 314 315 314 315 316 314 313 315 316 316 320 322 325 325 321 321 322 322 325 324 322 325 325 325 328 328 331 338 342 341 339 339 341 346 349 351 350 352 350 351 351 350 351 351 350 350 349 348 348 348 347 347 347 347 347 347 347 347 346 346 345 345 344 344 342 338 334 331 330 329 330 329 329 329 329 328 328 328 329 328 328 328
315 316 317 315 314 314 315 315 315 314 314 315 315 314 318 321 321 321 321 322 322 323 325 325 324 327 329 328 325 324 330 339 342 344 343 341 341 342 346 350 350 351 351 350 350 350 350 351 350 350 349 349 349 348 348 347 347 346 347 347 346 346 346 346 345 345 345 344 344 343 340 337 333 330 329 329 329 329 328 327 328 328 328 327 327 328
318 317 316 316 314 314 316 315 313 314 314 315 314 312 313 317 318 320 322 321 320 324 328 327 325 328 331 327 322 322 331 340 342 341 341 343 345 343 341 348 350 350 351 350 350 351 350 350 351 350 350 350 349 349 348 348 347 347 347 347 346 346 346 346 345 345 345 345 344 344 344 342 339 335 331 330 329 329 328 328 328 329 329 328 328 328
316 317 317 317 314 313 315 314 312 314 314 313 313 312 312 313 317 323 326 322 320 322 324 323 323 328 331 323 319 324 334 341 341 338 338 343 347 346 340 343 349 349 350 351 350 350 350 350 351 351 351 350 349 349 348 347 348 347 347 347 346 347 346 346 346 346 346 345 345 345 345 345 344 340 337 334 331 329 328 328 328 328 329 330 329 328
316 316 315 315 314 312 312 312 311 313 314 312 311 311 311 312 313 317 321 321 320 321 324 324 324 328 330 321 317 326 338 341 340 338 338 340 345 348 342 339 347 349 348 350 350 350 350 350 351 350 351 350 349 349 349 349 348 347 347 347 346 347 346 346 347 346 346 346 346 346 346 346 346 345 342 339 335 331 329 327 327 327 328 329 328 328
316 315 313 314 317 314 312 314 313 311 311 311 311 310 310 312 312 312 314 317 321 321 322 327 330 331 330 321 317 329 339 340 339 340 339 337 340 346 347 341 344 348 348 349 350 349 350 350 351 351 350 350 350 350 349 349 349 348 348 347 347 347 346 346 346 346 346 346 346 346 347 347 346 346 346 344 342 337 332 329 327 326 327 327 327 328
313 316 317 316 317 317 316 317 317 313 310 310 310 310 310 311 311 312 315 320 325 323 317 323 332 332 325 317 319 333 338 337 339 339 338 337 336 340 347 349 347 347 347 348 349 349 349 350 351 350 351 351 350 350 349 349 348 348 348 347 347 347 347 347 346 347 347 346 346 347 347 348 347 347 347 348 346 343 339 334 330 327 327 326 326 327
313 317 321 318 314 314 314 316 316 314 311 310 310 310 311 311 310 313 315 318 325 325 316 319 326 325 318 315 322 335 337 336 338 338 335 335 334 335 340 345 348 350 350 348 348 349 350 350 351 351 351 351 351 351 350 349 349 349 348 348 348 347 348 347 347 347 347 347 347 348 347 348 348 349 349 349 349 348 346 342 337 332 329 327 327 327
318 319 322 323 320 318 318 318 317 314 311 311 311 310 310 311 311 313 315 316 320 319 318 323 325 321 316 314 323 336 336 334 337 338 335 334 333 333 335 338 342 346 349 351 350 349 349 349 350 351 351 351 351 351 350 350 350 349 349 349 349 348 348 348 348 348 348 348 348 348 348 349 349 350 351 351 351 351 349 347 344 340 335 331 330 329
322 317 317 321 321 318 318 318 315 312 311 310 310 310 310 311 312 312 313 316 316 315 319 328 327 319 314 315 326 335 334 332 336 337 336 333 332 332 333 334 337 339 343 347 350 351 352 350 350 351 352 351 351 351 351 351 350 350 349 349 349 349 349 349 349 348 348 348 349 349 349 350 350 351 351 352 353 352 351 350 349 346 343 339 336 334
319 316 312 314 314 313 313 312 311 311 311 310 310 311 310 311 312 311 312 314 314 314 317 322 322 318 315 319 331 334 331 332 335 336 335 333 331 330 330 332 334 335 338 341 343 347 350 352 352 351 351 352 352 351 352 351 351 351 350 350 351 350 350 350 350 349 350 349 349 350 350 351 351 351 352 353 353 354 353 352 351 350 348 345 342 339
317 319 316 312 313 314 312 312 311 311 311 311 311 311 310 311 311 311 312 312 313 315 316 316 318 318 318 325 333 332 330 332 333 333 332 331 330 330 330 331 332 333 335 336 339 342 345 348 352 353 352 352 352 353 352 352 352 351 352 351 351 351 351 351 351 351 351 351 351 351 351 351 352 352 353 353 353 354 355 354 353 352 351 349 347 344
314 318 318 316 316 315 313 312 312 312 311 311 311 311 311 311 311 311 311 313 315 318 318 317 319 320 322 329 333 330 329 330 330 330 330 329 329 329 329 330 330 331 333 335 337 339 341 344 348 351 353 353 353 353 353 353 353 353 353 353 352 353 353 352 353 353 352 352 352 352 352 352 353 353 354 354 354 355 355 355 355 354 353 352 350 348
315 316 319 319 317 315 314 312 312 312 310 310 311 312 312 311 311 312 311 312 318 324 325 322 321 323 326 329 330 329 329 329 328 329 328 328 328 328 329 329 329 330 332 334 336 338 340 341 344 347 350 351 353 354 353 353 353 354 354 354 354 354 354 354 355 354 354 354 353 354 354 354 354 354 354 355 355 355 356 356 356 356 355 354 353 351
319 318 317 317 317 317 314 313 313 312 310 312 315 312 311 312 311 311 313 317 324 329 329 326 325 327 327 327 327 328 328 328 328 328 327 327 326 327 328 328 328 328 330 332 334 336 338 340 342 343 346 349 351 353 354 354 354 354 354 354 354 355 355 355 356 355 356 356 355 355 355 355 356 356 356 356 356 356 357 357 357 357 356 356 355 354
319 320 318 316 317 318 317 315 314 311 310 314 315 311 310 312 311 314 320 325 327 327 326 327 327 327 325 325 325 326 327 327 327 326 325 325 325 325 326 327 327 327 328 329 332 333 334 338 340 341 342 345 348 350 352 354 355 354 354 354 354 355 355 356 357 357 358 357 357 357 357 357 357 356 357 357 357 357 358 358 358 358 358 357 357 356
319 319 318 317 316 317 319 317 313 312 312 312 312 311 312 312 315 320 326 327 325 324 323 324 325 325 323 323 323 324 326 326 325 324 323 323 324 325 325 326 327 327 327 329 330 330 330 334 338 340 339 340 344 348 350 352 354 355 356 355 354 355 355 355 356 358 359 359 359 359 358 358 358 358 358 358 358 358 358 359 359 359 359 359 358 357
320 320 317 318 317 315 317 316 313 312 313 312 313 316 317 317 320 323 327 327 323 321 322 322 323 323 322 321 321 322 324 325 325 323 323 322 322 323 324 325 326 327 328 329 329 329 331 332 335 339 339 338 341 344 346 349 353 354 355 356 355 355 355 355 355 356 357 358 359 360 360 359 359 359 359 359 359 359 359 360 360 360 360 360 360 359
318 320 317 315 315 314 315 315 314 313 313 316 319 319 318 318 318 320 323 326 322 320 321 321 321 322 321 320 321 320 322 326 326 323 322 322 322 322 323 324 325 326 327 328 328 329 332 332 333 336 338 339 340 340 338 342 350 353 353 355 356 356 356 356 356 355 356 355 356 357 359 360 360 359 360 359 360 360 360 361 361 361 362 362 361 360
313 317 317 314 315 316 314 315 316 315 315 317 319 318 315 314 315 317 320 323 321 319 319 320 321 322 321 320 320 320 322 328 328 323 321 322 322 321 322 323 324 324 325 327 328 329 330 332 333 335 336 338 341 339 335 336 344 350 352 354 355 356 357 357 356 357 356 356 355 354 355 359 360 361 360 360 360 361 361 362 362 362 363 363 362 361
315 316 318 316 317 317 314 315 316 315 316 319 318 316 314 313 315 317 318 321 320 316 316 319 320 321 321 320 320 320 322 325 325 321 320 321 322 321 321 321 323 324 324 326 328 329 328 330 332 334 336 337 339 340 340 339 342 346 348 351 355 355 356 357 357 357 357 356 357 356 355 356 359 360 361 362 362 362 363 362 363 364 364 363 363 363
320 320 319 315 316 317 315 315 316 314 315 319 318 315 313 313 316 317 317 320 319 314 314 318 319 320 320 320 319 319 320 321 321 319 319 320 321 322 321 320 322 324 325 325 326 327 328 328 328 330 334 336 337 338 340 342 345 345 344 347 353 357 357 359 360 359 358 358 358 358 357 356 357 360 362 364 364 364 364 364 364 364 364 364 364 363
319 320 318 315 316 316 315 316 315 314 317 318 315 314 313 313 315 316 317 318 316 313 315 317 318 319 320 319 319 319 319 319 319 318 318 319 321 322 321 321 321 323 325 326 326 327 327 326 328 330 332 334 336 336 336 339 342 345 345 346 351 356 357 359 361 360 359 358 359 360 359 358 358 360 361 363 362 364 365 364 365 365 364 364 364 363
318 319 316 315 315 315 315 316 315 315 316 315 313 312 312 314 317 317 315 314 314 314 315 315 316 318 318 318 319 318 318 318 318 318 318 319 320 321 322 321 321 321 323 325 327 328 328 327 329 331 331 332 334 335 335 335 337 340 343 345 348 352 354 355 357 358 359 359 359 360 360 360 361 361 361 360 361 362 364 365 365 365 365 365 365 364
317 318 317 316 315 315 314 314 314 315 315 312 312 314 314 316 316 314 312 313 315 315 314 314 315 316 316 316 317 316 317 317 318 318 318 318 319 320 321 322 322 321 322 323 326 327 328 329 330 330 330 331 333 334 335 335 335 336 339 341 343 346 349 352 354 355 356 358 358 359 360 360 361 361 361 361 361 361 362 363 364 365 365 365 365 364
315 317 318 317 316 316 315 314 314 315 314 311 312 313 314 313 312 311 312 314 315 313 312 312 313 313 314 314 314 315 317 317 317 318 318 318 318 319 320 322 322 322 321 321 324 326 328 329 330 330 331 331 333 334 334 335 335 336 336 338 339 340 343 347 350 353 355 356 357 359 360 360 361 360 361 361 362 363 363 363 364 365 365 365 365 365
315 314 315 316 316 315 315 314 313 311 311 310 310 311 311 310 310 312 313 313 312 310 311 311 311 312 313 313 313 314 316 317 317 318 318 318 319 319 319 321 322 322 321 320 322 325 326 327 328 329 331 331 332 333 334 335 336 336 336 338 338 338 339 340 343 347 351 354 356 358 360 361 361 360 360 360 361 362 363 364 365 365 365 366 365 365
312 311 311 313 314 312 312 312 310 309 310 310 310 310 310 310 310 311 312 311 309 309 310 309 310 311 311 311 312 313 314 316 317 317 317 318 319 319 319 320 322 322 321 320 321 323 325 326 326 328 329 331 332 333 334 335 336 336 336 337 338 337 338 338 338 339 344 349 354 356 358 360 360 359 359 360 361 362 363 363 364 364 364 365 365 365
311 310 311 313 313 312 312 313 311 310 310 310 309 310 309 309 309 309 309 309 308 309 309 309 309 310 310 311 311 312 313 315 315 317 317 318 319 319 319 320 321 322 322 321 320 321 322 324 325 327 328 330 332 333 334 334 335 336 337 337 338 338 338 339 338 336 338 343 350 355 358 359 360 361 360 361 361 362 363 363 363 364 364 364 364 365
311 311 312 314 313 311 312 311 309 309 310 309 309 309 308 309 309 308 308 308 308 308 308 309 309 310 310 310 311 311 312 313 314 315 316 316 318 319 319 320 321 321 321 321 321 320 321 322 324 325 328 330 332 333 334 335 335 336 337 338 338 339 340 340 340 338 337 340 348 355 359 359 360 362 363 362 361 361 362 362 362 363 363 363 363 363
310 311 312 312 312 311 311 310 308 309 310 308 308 308 308 308 308 308 307 308 307 308 309 309 309 310 310 310 310 311 311 312 313 314 315 316 317 318 318 320 320 321 321 322 321 320 320 321 323 324 327 330 332 332 333 334 335 336 337 338 339 340 341 342 342 341 340 341 345 353 358 359 360 362 363 362 362 361 361 360 360 360 360 360 360 362
310 312 310 310 312 313 311 310 309 310 311 309 308 308 307 307 307 307 307 307 308 308 309 309 309 310 310 310 310 310 311 312 312 313 314 315 316 317 318 319 320 321 321 321 321 321 320 321 322 323 324 328 331 332 333 333 335 336 337 338 339 340 341 342 343 343 342 342 344 350 357 360 360 362 364 364 362 362 361 361 361 361 360 360 361 361
311 312 310 311 314 313 310 309 309 309 309 309 308 308 307 307 307 306 306 307 308 308 308 309 309 310 310 310 310 310 310 311 312 313 313 314 315 316 317 318 320 321 321 321 321 321 320 320 321 321 322 325 328 330 331 331 332 334 335 336 338 339 340 341 342 342 342 343 343 346 353 359 360 362 365 365 363 363 363 363 363 362 362 362 362 363
Wind_Speed
6 3 3 4 4 4 4 4 6 6 3 1 2 3 4 4 3 3 4 5 11 9 9 12 13 11 10 10 16 26 30 26 25 27 28 30 33 34 33 35 38 40 41 39 37 37 39 40 39 37 34 32 31 30 31 32 34 33 32 32 31 30 29 28 27 26 25 25 25 23 21 20 18 16 14 12 10 9 10 11 10 10 9 9 9 9
4 4 5 6 6 6 5 4 5 5 4 3 3 4 4 4 4 5 5 5 9 8 8 10 10 10 9 9 15 23 24 23 27 28 30 32 33 35 35 35 38 40 39 39 37 36 37 39 40 39 37 36 35 33 32 32 34 34 34 33 32 31 31 31 29 27 26 26 26 24 21 19 18 16 15 13 12 10 10 11 11 10 10 10 10 9
2 4 6 7 7 4 4 4 4 5 4 4 3 3 4 3 2 5 6 4 7 7 5 7 9 8 7 9 13 20 22 25 32 34 34 36 34 34 35 35 36 37 37 39 40 38 37 40 40 40 40 38 37 34 32 32 32 35 35 34 33 32 32 33 31 28 26 26 25 24 21 19 18 16 14 13 11 11 10 10 10 11 10 10 10 9
2 4 8 9 6 3 5 5 4 4 4 4 4 3 5 2 3 3 6 3 3 6 4 5 6 4 4 7 10 19 25 24 29 33 33 36 36 37 39 38 37 38 39 40 41 41 39 40 41 42 42 41 39 37 35 33 33 34 36 36 35 34 33 33 32 29 26 25 24 24 22 20 19 16 14 13 13 12 12 10 10 11 11 10 9 9
5 8 9 7 4 4 5 5 4 3 3 5 5 5 7 3 3 5 6 5 2 6 5 4 1 2 5 10 9 14 19 17 21 27 28 32 36 37 38 39 40 40 42 42 42 43 42 42 43 44 44 43 42 40 37 36 34 34 35 37 36 35 34 33 32 30 27 25 25 25 24 23 21 18 16 16 16 15 14 13 12 11 11 10 9 9
7 10 6 5 5 6 5 6 5 4 3 5 6 9 9 6 4 7 6 4 4 5 5 6 2 5 4 10 9 9 11 12 15 20 23 30 33 33 35 38 40 41 42 44 44 44 43 43 44 44 45 45 44 42 39 36 34 32 33 36 37 37 36 34 32 30 28 27 26 27 27 26 25 23 21 20 19 18 17 14 12 11 10 10 10 9
4 6 5 5 6 6 6 7 5 5 3 4 5 8 9 7 7 9 5 1 2 5 3 6 5 3 3 8 10 9 10 10 11 13 19 28 31 32 35 38 40 41 41 43 44 45 44 43 45 46 47 47 46 43 40 38 35 33 32 33 37 39 37 36 34 31 30 29 29 29 28 28 27 25 23 21 19 19 17 14 12 10 10 10 11 10
2 1 2 4 4 4 4 5 6 7 5 5 6 6 7 7 7 9 6 4 4 4 3 2 3 2 2 6 7 8 9 9 11 13 16 25 31 33 36 38 40 42 42 43 44 45 45 45 47 49 49 49 47 44 42 40 38 35 33 32 35 39 39 37 36 33 32 31 31 30 29 29 29 27 24 21 20 20 18 16 14 11 10 10 11 11
1 1 2 5 3 3 5 7 8 8 6 9 10 6 5 7 7 6 6 4 2 2 3 5 1 2 3 3 4 7 9 11 15 17 16 22 30 33 35 38 40 42 43 44 45 47 47 48 48 49 50 49 48 46 44 42 39 37 34 32 34 38 40 39 37 35 34 33 32 31 31 30 30 28 26 22 20 20 19 18 15 13 12 11 12 12
1 3 5 4 4 4 6 9 8 8 7 10 6 4 4 4 5 4 4 4 1 2 5 6 4 2 4 2 5 6 9 13 16 15 15 23 31 33 35 38 40 41 42 43 45 48 49 50 50 49 49 49 48 48 46 43 41 38 36 34 34 37 39 39 38 37 35 34 33 33 32 31 31 30 28 25 22 21 21 19 17 16 14 13 13 13
4 6 5 2 2 4 5 6 7 8 10 9 1 1 2 0 2 1 1 2 3 1 7 8 9 6 3 3 5 8 12 16 15 11 13 21 29 33 35 37 40 42 42 43 44 46 49 50 49 48 48 49 49 49 48 46 44 41 39 36 35 36 37 38 39 39 37 36 35 35 34 33 32 31 29 27 24 23 22 21 20 18 16 15 14 14
6 4 2 3 10 8 3 3 3 4 4 3 0 1 1 3 1 2 4 2 3 4 7 7 8 7 4 5 6 11 16 17 15 13 14 19 26 33 35 37 39 42 43 43 43 44 46 47 46 47 49 50 50 50 50 49 47 45 42 39 37 37 37 38 39 39 39 38 36 35 35 34 33 33 31 29 26 24 23 22 21 20 18 17 15 15
3 3 3 2 12 16 6 3 6 6 5 4 2 3 2 2 1 1 2 1 4 5 6 5 6 4 6 6 7 13 16 16 15 16 18 22 28 33 35 36 38 40 43 43 43 43 44 46 47 48 50 51 51 52 51 50 49 48 45 42 40 38 38 38 39 39 40 40 38 36 35 35 34 34 32 30 28 26 24 23 23 22 20 19 18 17
1 2 7 5 7 12 7 3 4 4 5 4 1 4 4 2 2 2 3 1 2 4 5 2 4 2 4 5 8 13 14 18 21 24 27 30 33 36 37 38 38 39 41 42 43 44 44 47 48 49 50 52 53 53 53 52 51 50 47 45 43 40 38 39 39 39 40 41 40 38 36 35 35 35 34 32 30 28 26 25 24 23 22 20 19 18
1 1 6 5 4 8 6 2 2 4 3 4 3 4 3 4 4 3 3 2 3 3 3 2 1 3 4 4 8 9 10 15 22 26 28 29 32 35 36 36 37 38 40 42 43 45 46 47 48 49 50 52 54 54 53 53 52 52 50 48 45 43 41 40 40 40 40 40 40 40 38 36 36 36 35 34 32 30 28 27 25 24 23 21 20 18
2 2 5 3 2 6 6 5 4 1 3 4 0 3 1 2 3 1 3 5 4 1 1 1 2 4 5 2 8 10 10 9 14 19 21 23 27 29 30 34 38 39 41 42 44 45 47 48 48 49 50 52 53 54 54 54 54 53 52 50 47 45 43 41 40 40 40 40 40 41 40 38 38 38 37 36 34 32 31 29 27 26 24 22 21 20
2 2 5 5 4 8 8 5 6 8 1 3 4 1 5 3 4 1 2 0 4 3 1 2 2 4 3 3 13 17 14 12 10 8 13 19 25 27 31 36 39 40 42 44 45 46 48 48 49 50 51 52 53 54 56 56 56 55 53 51 49 48 46 44 42 40 39 40 40 41 41 41 40 39 39 38 37 35 33 31 29 27 25 23 22 21
1 3 4 6 3 9 13 5 6 13 6 1 2 4 6 1 3 2 0 2 4 3 3 1 4 3 5 2 11 18 18 17 15 11 10 12 20 27 32 38 41 44 46 46 46 46 47 49 50 50 51 52 54 55 56 56 56 55 54 52 51 50 50 47 45 42 40 40 41 41 42 42 42 41 40 39 38 37 35 34 31 29 27 25 23 22
2 2 4 6 3 6 12 8 3 10 12 4 1 5 4 3 1 2 1 1 1 3 2 2 3 4 5 4 10 16 16 17 16 13 13 10 12 23 32 38 43 45 44 45 46 47 49 50 51 52 52 52 53 54 56 56 55 55 54 53 51 50 50 48 46 44 42 41 41 41 42 43 43 43 42 41 40 39 38 36 34 32 29 27 26 25
2 2 3 6 7 4 5 7 3 7 10 6 4 6 5 3 1 2 0 2 1 3 2 2 3 3 2 4 9 12 13 15 17 17 14 13 16 22 30 35 40 44 44 45 48 49 51 52 52 53 53 52 53 53 54 54 54 55 55 54 53 52 50 49 48 46 45 43 42 41 41 42 43 43 43 43 42 41 40 38 36 34 32 30 29 28
2 3 2 5 8 5 2 4 3 3 6 6 6 7 7 3 1 0 0 2 1 2 1 1 3 1 4 3 7 9 11 14 18 19 16 19 24 23 29 34 37 42 45 47 50 51 51 52 52 53 53 52 52 52 52 53 54 54 55 54 55 54 52 52 50 48 47 45 44 43 42 41 42 43 44 44 44 43 42 40 38 37 35 33 32 30
2 2 2 4 5 4 2 4 3 1 2 6 6 6 5 4 3 2 2 3 2 2 0 2 2 4 3 4 7 8 8 12 19 21 18 24 33 27 25 36 37 40 46 47 48 50 49 50 50 51 52 52 50 50 51 52 53 53 54 55 55 54 54 53 51 50 48 46 45 44 42 41 41 42 43 44 46 46 45 43 41 40 39 38 36 34
2 2 3 2 2 3 5 4 5 4 4 7 7 5 4 4 5 4 1 4 3 2 2 1 1 5 2 5 9 9 8 12 22 26 22 27 37 35 18 32 40 39 43 45 46 48 48 48 49 48 50 50 50 50 50 51 53 53 54 54 54 54 54 53 51 50 49 47 46 44 42 41 41 41 42 43 45 46 47 46 44 43 43 41 39 38
3 2 3 3 3 4 5 4 5 7 6 5 5 5 5 4 3 1 2 2 2 2 3 3 1 4 3 8 12 13 13 14 23 32 30 30 37 44 31 15 37 39 40 40 39 41 43 44 45 46 47 49 49 50 50 51 52 53 54 54 54 55 54 53 52 50 50 48 46 44 43 43 42 41 41 42 44 45 46 47 46 45 45 44 43 42
3 1 3 3 3 5 6 5 5 6 6 3 3 6 5 5 6 4 1 1 1 1 4 2 2 5 6 11 12 14 16 14 19 31 35 35 37 43 43 24 7 22 31 35 35 36 36 39 43 45 47 48 49 50 50 51 51 52 53 53 54 54 53 53 52 51 50 49 48 46 45 43 42 42 41 41 42 43 45 46 46 46 46 45 45 44
2 2 2 4 3 1 1 1 3 4 5 3 4 7 7 6 7 4 3 4 1 1 4 1 3 7 11 13 13 12 15 14 17 27 34 40 43 42 41 40 31 16 1 14 24 29 31 35 41 45 47 48 49 50 50 50 50 51 52 52 52 53 52 52 51 51 50 50 48 47 46 44 43 42 41 40 40 41 43 44 45 46 46 45 45 44
3 3 2 5 5 3 4 4 4 3 3 4 7 9 7 6 6 4 3 2 1 2 5 3 4 6 14 15 14 13 13 12 15 21 25 34 44 43 37 37 38 36 29 17 4 10 20 26 32 39 43 45 46 47 48 49 49 50 50 50 50 50 51 51 51 51 51 50 49 48 47 45 44 42 40 38 38 38 40 42 43 44 45 45 44 44
4 3 2 5 3 4 5 5 4 2 2 4 7 8 8 7 6 4 0 2 2 3 5 6 3 6 11 12 12 12 13 11 13 18 19 24 36 39 38 40 41 40 37 32 25 15 3 10 20 27 33 37 39 41 43 44 46 47 48 48 48 48 49 49 50 51 51 51 50 49 48 45 44 42 40 38 37 37 39 40 41 42 42 43 43 43
4 1 0 3 1 3 3 3 2 1 2 3 4 7 8 8 7 4 3 5 2 1 5 8 8 8 8 8 8 10 12 12 13 17 19 24 33 38 41 42 42 41 40 36 32 27 20 11 4 14 23 30 33 36 37 38 40 42 44 45 46 46 47 48 49 50 50 51 51 50 48 46 44 43 42 40 39 38 38 39 40 40 40 41 42 42
3 1 0 3 2 2 2 3 3 4 3 4 5 6 7 7 8 6 5 6 5 5 8 9 11 9 5 4 5 9 12 13 16 20 23 27 31 35 38 39 39 41 41 38 34 30 26 22 15 7 13 21 27 32 34 35 37 39 41 42 43 44 45 46 47 49 49 50 51 50 48 46 45 44 43 42 41 39 39 38 38 39 39 40 40 40
3 1 1 4 4 4 4 4 4 4 3 5 5 6 6 6 6 5 4 4 4 5 6 8 9 7 4 7 9 11 14 16 19 22 25 26 28 31 34 36 39 41 40 38 35 32 28 25 21 15 9 10 17 24 29 32 34 36 38 39 40 42 43 44 46 47 49 50 49 49 48 47 46 45 44 43 42 41 39 39 38 38 38 38 38 39
3 1 2 5 3 4 4 6 7 6 6 5 5 6 5 3 3 3 4 5 4 4 6 6 5 4 6 10 12 11 14 17 18 19 21 23 27 29 31 33 36 37 38 38 35 33 31 27 23 19 14 9 7 14 21 27 30 32 34 36 37 38 39 41 44 45 46 47 47 47 47 47 46 45 45 43 42 41 40 39 39 39 38 38 37 37
3 3 1 3 3 3 5 4 5 6 6 5 4 2 1 2 4 5 5 5 4 2 3 4 3 3 7 10 10 9 10 13 14 16 20 22 25 27 28 29 32 33 35 36 35 33 32 29 25 21 17 14 9 5 10 17 23 27 31 33 34 35 35 37 39 42 43 44 45 46 46 46 46 46 45 43 41 40 40 40 40 40 39 38 37 37
3 4 2 2 3 2 6 3 4 4 3 4 4 1 1 3 4 3 5 4 3 3 2 3 4 5 7 9 9 9 7 10 12 15 18 20 23 25 26 27 29 30 32 34 35 34 32 30 26 21 18 16 12 8 5 7 15 21 26 31 33 33 34 34 34 36 39 41 43 44 45 45 46 45 44 43 41 40 40 40 40 40 39 38 38 38
3 3 2 2 3 1 3 4 4 2 4 4 5 4 4 3 3 3 5 3 3 6 5 6 7 7 9 10 11 12 5 10 15 19 20 21 23 23 24 24 25 27 29 31 33 34 32 29 27 23 19 18 15 10 7 4 9 14 19 26 31 33 35 36 35 35 36 37 39 42 44 45 45 44 43 42 40 40 40 40 39 38 38 38 38 39
4 3 2 2 2 0 1 2 1 4 4 4 6 6 5 3 2 3 4 2 4 6 5 6 6 6 10 12 15 18 9 6 12 21 23 22 23 21 21 22 22 24 25 26 29 31 30 27 26 24 20 18 18 14 10 7 3 9 12 17 26 32 34 37 38 38 38 37 36 38 41 43 44 43 42 41 41 41 40 39 39 37 36 37 37 38
5 3 1 1 1 1 1 2 3 4 6 5 3 3 4 3 2 3 3 3 3 6 5 6 5 7 11 13 17 24 16 3 4 16 23 22 22 20 19 19 21 22 23 25 26 27 27 25 24 24 21 17 18 18 14 11 7 3 6 8 15 25 30 34 36 38 39 39 37 35 36 40 43 43 42 41 41 41 40 39 37 36 35 35 36 36
4 2 3 3 2 2 2 2 3 3 3 3 3 3 4 6 4 1 1 3 2 7 10 8 6 8 11 13 17 21 15 1 2 10 19 22 21 21 19 18 19 21 22 24 25 25 26 27 24 23 21 18 16 16 16 14 11 4 2 3 5 13 22 28 32 35 38 38 37 35 34 36 40 43 43 42 42 42 41 39 37 35 34 34 34 33
5 3 3 4 1 2 3 2 2 2 4 4 4 5 9 10 4 0 1 2 1 9 14 10 9 11 11 13 16 14 9 3 1 9 18 20 19 20 20 18 18 20 20 21 23 23 24 27 26 24 21 19 17 15 12 11 10 7 3 2 2 5 12 17 21 25 29 29 31 33 33 33 36 41 43 43 42 41 41 39 37 35 34 34 33 32
5 4 3 2 1 3 3 2 3 3 4 4 4 6 11 11 6 2 3 3 3 13 17 12 12 14 12 14 14 8 3 2 5 11 18 19 16 17 19 18 17 18 19 20 22 23 23 24 27 27 25 22 20 19 15 11 9 6 5 6 5 3 3 6 9 13 17 18 21 26 29 30 33 37 41 42 41 41 42 40 39 37 36 35 34 33
2 2 1 2 3 4 4 3 3 3 3 4 3 7 9 8 4 2 4 3 9 17 18 14 15 17 15 15 13 7 6 9 12 15 18 17 16 16 17 18 17 16 17 19 20 22 24 23 24 27 27 25 23 22 21 18 13 9 5 7 9 8 6 7 8 10 12 14 16 18 20 23 27 31 36 39 40 40 42 42 40 39 38 36 35 34
0 1 0 2 2 2 2 2 2 4 3 3 4 8 4 0 2 3 5 11 14 16 17 16 16 16 16 16 15 15 17 18 17 17 17 16 16 17 16 18 19 17 17 17 18 20 22 22 22 23 25 26 25 24 23 22 19 15 11 8 10 12 12 11 11 11 12 14 15 16 16 19 22 25 30 34 37 39 41 42 42 41 39 38 37 36
3 1 1 2 2 1 1 1 3 4 2 3 6 5 1 2 4 9 16 16 13 13 16 17 16 16 16 18 19 20 22 21 19 18 18 16 15 16 16 17 19 19 18 17 18 19 20 21 21 21 22 25 25 24 23 23 22 20 17 15 14 14 14 13 13 13 13 14 15 16 18 20 22 24 26 29 34 38 40 40 41 42 41 40 39 38
3 3 2 2 2 2 2 3 3 3 5 4 2 3 6 9 12 15 15 14 12 13 16 18 20 19 18 19 21 22 23 23 21 18 18 18 16 16 16 16 16 18 18 17 17 18 19 20 20 19 20 21 23 24 23 23 23 22 20 19 18 19 18 15 13 14 14 14 14 16 18 21 23 25 25 26 30 35 39 40 40 41 42 42 41 40
5 5 4 2 3 3 4 7 6 4 4 7 9 10 12 14 16 13 11 11 13 14 16 20 23 23 21 22 23 22 22 23 23 20 18 18 18 17 16 16 15 16 17 16 16 16 18 19 19 18 19 19 21 22 22 23 23 23 23 22 21 22 21 19 16 14 14 14 14 15 17 19 21 25 26 26 28 33 37 38 40 41 42 43 43 42
5 6 5 2 2 3 7 13 14 13 15 16 13 13 15 19 18 14 12 13 15 17 19 22 24 25 24 24 24 23 22 23 24 23 19 18 18 18 17 15 14 15 16 16 16 16 17 18 18 18 18 19 20 21 22 22 23 24 25 25 24 24 25 23 21 18 16 15 15 16 16 17 19 22 24 25 28 31 34 35 37 38 40 41 43 43
3 7 5 2 1 1 4 7 7 7 11 15 17 20 22 21 17 15 15 17 19 20 21 22 23 25 26 25 25 25 24 23 25 26 23 19 18 19 18 15 14 15 15 15 16 16 16 17 18 18 17 17 19 20 21 22 23 24 25 25 25 25 26 26 24 22 19 17 16 16 16 17 17 18 21 24 27 31 33 34 36 38 40 41 42 43
4 8 5 2 3 4 5 8 9 12 18 21 20 19 16 14 14 16 19 21 20 20 21 21 21 23 24 25 26 26 26 25 26 27 27 23 19 19 19 17 15 15 16 16 16 16 16 16 16 16 15 15 16 17 19 21 22 24 25 25 24 24 26 26 25 24 22 18 16 16 16 16 16 17 18 21 25 30 32 34 36 38 39 40 41 42
8 8 4 3 3 4 8 12 13 14 16 16 12 10 10 12 16 19 21 21 20 20 20 21 21 21 23 25 27 27 27 27 26 27 28 27 23 21 20 18 17 16 17 17 16 16 16 16 15 14 12 12 13 14 15 17 20 22 23 24 24 24 24 25 25 25 22 18 17 17 16 15 15 16 17 19 22 26 30 33 35 36 36 36 37 38
8 4 3 3 1 3 7 11 9 5 7 11 11 11 12 13 16 18 20 21 20 19 20 21 22 22 23 24 26 27 29 29 27 26 28 29 27 24 21 19 18 17 17 17 17 16 17 17 15 13 11 10 11 12 13 14 16 18 20 22 23 23 23 23 25 26 24 20 17 16 16 16 15 15 16 17 20 24 29 33 35 36 36 36 37 37
13 10 8 7 6 8 14 16 12 9 10 14 14 13 12 13 15 18 20 20 20 20 21 22 23 23 24 24 25 26 29 30 28 26 27 28 29 27 23 20 20 18 17 18 17 17 18 18 16 14 11 9 9 9 11 12 13 14 16 17 20 22 22 22 24 26 25 22 19 16 14 14 14 15 15 15 19 23 28 32 35 38 38 38 39 39
Wind_Direction
174 196 239 223 224 216 218 182 189 226 228 255 285 266 263 282 272 221 262 231 177 189 220 211 216 218 202 189 180 179 182 188 189 187 190 190 189 189 188 190 194 196 197 194 195 199 201 203 206 207 208 209 210 210 207 204 203 202 198 197 198 197 197 198 195 189 188 190 192 195 196 196 193 189 190 191 194 201 199 198 197 193 193 189 182 181
163 209 239 228 224 219 227 200 196 244 263 272 262 278 282 255 262 251 250 236 186 194 229 218 222 227 209 195 181 177 180 190 191 188 190 192 191 191 190 191 194 198 199 197 197 198 200 202 204 206 207 208 209 209 209 206 205 204 202 200 199 198 199 201 201 196 193 195 197 199 199 195 192 189 189 189 188 192 194 198 199 196 198 197 192 189
185 238 247 239 232 216 250 237 209 239 254 268 260 282 286 239 286 288 273 251 180 192 232 210 216 232 215 197 186 183 187 194 193 190 190 190 190 193 193 192 194 196 197 197 198 199 200 201 202 205 207 208 209 209 210 208 207 206 204 202 201 201 201 203 205 202 198 199 201 203 203 198 194 191 189 187 187 191 195 199 201 201 202 201 198 194
208 250 238 238 237 209 253 260 234 253 262 259 249 265 268 206 94 292 294 338 154 201 225 184 200 223 187 195 199 195 196 196 194 194 193 192 192 194 195 195 194 195 196 197 198 199 200 201 202 204 206 208 209 210 210 209 208 208 206 205 203 203 205 206 207 205 203 202 203 204 205 204 201 198 192 190 193 195 195 197 200 202 201 200 201 195
225 243 231 221 214 200 240 270 254 242 259 257 231 232 256 239 142 215 270 347 5 243 234 120 129 254 179 191 205 199 201 201 194 194 195 196 197 196 197 197 197 197 197 197 197 198 199 201 202 204 206 208 208 210 210 210 210 209 208 207 205 205 207 209 209 207 205 206 207 205 204 206 207 205 198 194 195 194 192 192 193 195 197 198 199 197
241 246 223 192 209 197 214 256 238 196 230 277 238 217 235 244 218 231 261 342 351 289 230 142 158 271 204 189 198 191 198 202 194 193 194 197 199 198 197 198 200 201 200 200 199 199 199 201 203 204 206 207 208 211 212 211 212 212 211 208 207 207 208 210 211 209 207 207 208 206 204 205 205 205 200 195 191 189 189 186 184 188 194 198 200 199
248 245 189 187 219 195 202 243 227 175 191 272 240 203 214 223 232 248 255 198 265 283 242 158 171 259 241 199 199 187 192 199 197 200 198 197 199 199 198 199 200 201 201 202 202 200 200 201 202 204 205 206 209 212 212 212 213 214 213 210 208 209 209 211 212 211 209 208 208 207 207 206 206 206 203 198 192 187 186 183 181 188 195 199 204 203
258 314 176 188 207 186 202 243 223 172 167 252 237 180 182 197 219 240 225 188 222 251 310 6 123 130 255 217 184 170 185 198 206 210 204 200 200 201 201 200 200 201 202 202 202 202 201 202 203 204 205 207 210 212 212 212 213 215 215 213 210 210 210 211 212 212 210 210 209 208 209 209 209 210 208 206 198 189 186 186 188 194 198 202 206 206
280 76 171 159 159 187 202 231 222 170 176 248 242 200 176 183 203 217 195 198 224 180 276 303 119 125 277 250 131 155 188 204 214 213 207 203 202 201 201 201 201 201 202 203 203 203 203 203 205 206 206 208 210 211 212 212 213 215 217 215 211 210 211 211 212 213 212 212 211 209 210 210 211 213 213 212 205 194 191 193 196 198 201 205 207 207
275 225 217 147 150 206 216 239 222 167 199 244 242 210 195 182 206 208 180 193 131 126 227 246 195 165 276 243 137 166 204 214 217 213 207 207 205 203 202 201 202 202 202 204 204 205 205 205 206 207 207 207 208 210 212 214 214 215 216 216 213 212 212 213 213 214 214 213 213 212 211 210 211 213 214 214 210 202 200 200 201 202 203 206 208 207
292 274 254 89 65 236 238 252 224 196 221 239 260 229 238 274 200 194 62 121 115 214 242 226 199 186 263 256 180 190 210 213 215 211 206 210 209 206 204 202 201 202 202 203 205 206 206 207 207 207 207 207 208 209 211 213 213 214 215 216 215 214 214 215 214 214 215 214 215 214 213 212 212 213 215 215 211 206 205 204 204 203 203 206 208 207
338 345 291 38 34 20 327 310 298 271 251 235 125 135 240 317 9 54 9 64 147 249 258 217 187 180 225 255 214 211 218 215 211 207 202 206 209 208 206 203 202 202 203 203 203 205 206 206 206 206 207 207 207 207 209 211 212 213 214 215 216 216 216 216 216 216 216 216 216 216 215 214 213 214 216 215 212 208 206 205 205 205 205 207 206 206
14 17 319 341 37 33 20 349 343 340 20 47 75 108 126 302 353 113 287 204 182 248 256 179 141 165 232 249 230 223 226 223 217 213 206 204 206 207 206 204 203 203 203 203 203 203 204 204 204 205 206 206 206 206 208 209 211 213 214 215 217 217 217 218 218 217 217 218 217 217 217 215 214 215 216 217 216 214 212 211 210 210 209 208 207 206
349 325 352 359 13 14 23 48 357 324 357 7 126 125 142 164 119 210 243 256 194 244 261 188 135 192 259 270 240 226 227 224 221 218 212 207 204 204 205 204 204 205 204 204 204 204 204 204 204 205 206 206 206 207 208 209 211 213 214 215 217 218 218 219 219 219 219 219 219 218 217 216 215 216 217 218 219 219 218 218 217 217 215 213 212 210
105 259 357 12 331 345 18 46 251 235 290 298 207 144 140 155 145 199 209 177 201 237 294 312 187 185 199 250 251 250 254 237 229 225 217 211 207 204 202 202 203 205 206 205 205 205 206 205 205 206 206 207 208 208 208 209 210 213 215 216 217 218 218 219 220 220 220 220 220 219 219 217 216 217 219 220 221 222 223 223 223 223 221 218 215 214
86 217 295 325 350 6 4 316 301 199 228 282 295 99 42 161 155 207 197 173 168 137 6 272 215 211 208 279 338 333 314 279 251 237 219 208 205 201 198 200 203 205 206 206 206 206 207 207 207 207 207 208 208 208 209 209 210 213 215 216 217 218 218 219 220 221 221 222 221 221 220 219 217 218 220 222 222 224 225 226 227 226 225 221 218 217
32 259 303 341 3 2 348 310 30 51 228 269 35 2 267 230 159 175 253 209 96 115 258 232 221 291 291 9 2 357 352 345 328 276 234 211 197 192 195 200 203 204 205 206 207 207 207 207 208 208 208 209 209 209 210 210 212 214 216 217 218 218 218 219 220 221 222 223 223 222 221 220 219 219 221 222 224 225 227 228 229 229 226 223 222 223
11 258 322 13 349 341 351 352 67 43 20 77 56 299 287 281 128 124 205 1 62 134 267 231 150 350 360 8 348 355 357 348 348 341 302 246 202 192 197 202 204 205 206 207 207 207 208 208 209 209 209 211 211 211 212 212 213 215 217 218 219 218 218 219 220 221 223 223 224 224 223 222 221 221 222 223 225 226 229 230 231 231 229 227 228 231
22 276 303 7 341 327 4 20 38 11 9 38 211 304 352 76 51 6 105 141 112 154 262 281 125 52 14 347 342 349 346 337 339 343 335 307 241 212 204 202 204 206 206 205 206 207 208 208 209 209 210 211 212 213 214 213 213 214 216 219 220 221 221 221 221 222 223 224 225 226 226 225 224 223 224 225 226 227 229 232 233 234 234 234 234 236
32 57 277 331 342 330 16 28 6 337 348 11 23 2 19 101 140 323 149 149 156 157 208 274 48 49 308 337 347 337 333 339 342 338 336 325 292 247 220 209 205 205 204 205 206 206 208 209 209 210 210 211 213 214 214 213 213 214 216 218 219 221 221 222 222 223 224 225 227 228 229 228 228 227 226 227 227 228 230 233 235 236 238 239 238 239
33 58 285 308 343 4 27 9 356 318 337 8 34 27 6 347 356 287 358 37 76 127 176 129 65 260 243 356 350 331 341 355 353 344 332 325 315 280 237 219 209 206 205 206 207 207 207 209 209 210 211 211 213 213 213 213 213 214 215 217 219 219 220 221 222 223 225 226 228 229 230 231 231 230 230 229 229 230 231 233 236 238 240 241 242 243
20 53 7 331 353 17 309 302 324 305 34 56 54 32 5 350 20 54 358 345 33 75 43 126 126 244 239 26 347 337 2 7 360 349 334 331 331 314 254 224 214 212 210 207 207 207 207 208 208 209 210 210 211 212 213 213 214 215 215 216 218 219 220 221 222 224 225 226 228 230 232 233 233 233 233 232 231 231 231 232 234 238 240 242 244 245
21 81 48 358 317 295 274 297 31 67 99 78 62 34 6 10 42 62 329 310 337 4 340 53 169 225 217 19 352 351 4 12 12 3 349 342 343 343 299 229 216 214 215 212 209 207 207 207 207 208 209 209 210 212 213 214 214 215 216 216 217 218 220 223 224 225 225 226 228 231 233 234 235 235 235 235 234 233 232 232 233 236 238 242 244 246
8 55 37 348 308 318 299 301 36 57 67 55 30 17 9 357 8 360 224 249 318 358 17 29 291 243 300 352 350 357 354 2 20 17 7 357 353 0 360 254 219 215 215 214 211 210 208 207 205 205 207 208 209 211 212 214 215 216 217 217 217 218 221 223 224 225 225 226 229 230 232 234 235 236 237 237 237 236 235 234 234 235 236 239 242 245
359 46 54 33 3 359 352 335 347 20 41 39 327 346 353 339 349 344 309 44 47 50 55 74 253 272 310 335 341 360 0 354 13 19 18 12 1 4 15 15 254 221 217 213 211 210 208 206 204 205 206 207 209 210 212 213 215 216 216 217 218 219 220 222 224 225 225 227 229 230 232 233 235 236 238 239 240 239 238 237 237 236 237 238 240 242
54 75 86 90 97 109 341 321 307 326 352 348 322 341 342 341 357 1 17 28 39 353 15 141 217 287 309 327 338 359 9 356 359 12 20 21 13 4 12 23 28 30 354 215 212 212 211 208 206 206 207 208 208 210 211 213 214 216 217 218 219 219 220 221 222 224 225 227 229 230 232 233 234 236 238 241 242 242 241 240 239 239 239 239 241 242
91 57 84 123 135 170 186 211 257 299 327 320 327 340 339 338 357 21 46 33 228 332 340 228 195 311 314 326 339 352 5 359 356 4 12 23 20 10 6 16 27 35 39 45 92 206 214 212 210 209 209 208 208 210 212 213 214 215 217 218 219 219 220 221 222 223 225 227 229 231 233 234 235 236 239 241 243 244 243 243 242 241 241 242 243 244
95 41 53 119 151 201 192 219 258 267 266 302 320 330 332 329 340 6 43 248 271 1 317 262 260 320 306 315 337 349 357 358 355 354 0 20 22 14 10 15 22 28 33 40 48 52 89 205 213 214 212 211 210 211 213 214 215 216 217 218 219 219 220 221 222 223 225 227 229 231 233 235 237 238 239 241 243 244 244 243 243 243 243 243 244 245
105 89 141 107 128 230 218 247 282 343 295 308 315 312 321 326 324 324 266 255 275 253 257 274 293 297 291 308 342 3 1 358 358 355 3 21 23 18 16 15 16 19 23 29 35 40 47 59 163 205 211 213 212 213 214 216 217 217 218 219 220 220 221 222 223 224 225 227 229 232 234 236 237 239 240 241 242 244 244 244 244 244 244 244 245 246
98 94 15 82 55 322 320 330 14 37 344 315 308 295 301 306 299 295 274 262 262 247 247 270 285 279 276 311 357 24 16 9 15 16 19 24 23 21 19 15 12 13 16 20 24 30 39 47 59 114 186 204 210 214 216 218 219 219 219 220 221 221 222 223 224 224 225 227 229 232 235 236 237 239 240 240 242 243 244 245 245 244 245 245 246 247
75 16 15 72 42 324 333 357 3 7 327 296 288 276 280 300 305 306 301 286 283 274 265 274 283 283 314 350 8 29 30 25 26 24 23 23 21 21 20 17 13 10 9 13 18 23 31 40 49 67 107 170 198 209 215 218 221 221 221 221 222 223 224 224 225 226 227 228 231 232 234 236 237 239 240 241 242 244 244 245 245 245 246 247 247 247
94 30 4 69 53 301 319 359 346 336 330 304 274 254 254 289 321 320 310 293 285 288 285 287 293 300 331 349 5 24 34 36 31 24 22 22 22 23 19 16 14 8 5 7 11 17 23 28 35 43 56 82 147 194 208 215 219 221 222 222 223 224 225 226 227 228 230 230 232 233 234 235 237 238 240 241 242 244 245 245 246 246 246 247 247 248
131 111 89 96 84 285 294 339 345 346 347 316 268 203 149 333 323 320 317 304 309 335 304 287 302 332 334 349 2 12 30 39 34 28 25 20 21 24 20 16 14 9 5 3 5 12 16 18 20 25 35 47 65 131 189 208 214 218 221 222 224 224 225 228 230 231 232 232 233 234 235 236 237 238 240 242 243 245 246 246 246 246 246 247 248 248
132 114 131 141 118 264 280 322 2 356 329 268 255 153 28 299 293 296 296 298 343 14 347 317 344 356 353 360 360 358 31 56 44 36 32 22 21 24 19 14 12 8 4 1 1 6 11 13 14 15 20 26 32 59 105 181 202 211 218 220 222 223 223 226 229 231 233 235 235 236 237 237 238 239 241 242 244 245 246 246 247 247 248 248 248 247
118 114 143 130 117 224 292 15 15 286 239 268 304 313 293 259 205 238 265 266 23 15 2 360 360 357 357 359 352 345 22 91 64 41 32 23 22 22 15 11 9 6 2 359 359 1 4 8 9 5 3 3 3 21 53 108 179 195 210 215 218 221 223 225 226 227 230 233 235 238 238 239 239 240 241 243 244 245 245 246 247 248 249 249 248 247
130 130 152 126 121 167 26 75 187 246 268 319 336 340 347 5 48 354 308 303 32 20 8 360 352 349 353 354 351 345 335 134 76 37 25 19 18 17 10 5 4 4 2 358 356 357 359 2 3 360 356 348 339 346 11 28 126 175 194 209 215 218 221 225 228 229 231 233 235 236 238 239 240 241 242 244 244 244 245 246 247 248 250 249 249 248
134 131 131 149 180 142 133 211 254 315 329 338 351 359 7 355 329 347 326 292 2 15 4 349 342 349 353 349 351 351 341 217 101 24 13 10 9 10 6 2 359 359 358 354 350 352 355 357 359 359 356 346 330 321 326 348 13 130 172 196 212 216 219 223 228 232 234 235 238 240 240 240 240 241 243 244 244 245 245 246 247 249 250 249 248 248
104 131 152 162 187 121 122 256 307 338 301 263 236 266 324 320 290 277 304 273 340 5 356 347 335 341 352 349 350 355 355 341 153 359 356 358 1 3 1 357 355 354 352 349 346 347 350 352 357 1 357 352 342 322 306 313 334 346 162 168 203 212 216 221 227 232 235 236 237 241 243 243 242 241 243 245 246 246 246 247 248 249 250 249 249 249
54 53 111 123 126 119 136 213 239 227 246 241 233 278 324 335 326 173 298 261 324 353 348 344 332 334 345 347 348 357 9 37 354 334 343 348 354 358 355 350 350 350 345 342 342 343 345 346 349 354 355 352 351 344 323 308 309 307 280 252 246 212 211 219 226 231 236 238 237 238 242 245 245 243 243 246 248 249 248 249 250 250 250 250 250 250
37 33 72 109 206 189 179 228 222 218 247 229 231 297 331 347 358 343 278 253 331 340 338 334 325 326 330 335 343 360 30 2 307 320 336 343 346 353 354 350 349 347 341 339 338 337 339 340 340 343 347 348 346 344 341 334 322 305 265 250 268 275 227 224 230 230 232 235 236 236 237 241 245 246 246 248 251 251 250 250 250 250 250 250 250 250
8 14 110 152 206 215 219 237 253 268 243 202 243 320 335 347 345 231 224 292 329 327 328 328 320 317 320 325 329 324 313 319 317 320 332 338 340 348 352 349 348 343 338 340 339 334 335 337 337 338 340 341 341 339 337 336 335 330 294 246 247 255 242 229 232 234 230 228 229 232 233 234 239 245 248 251 253 253 251 250 250 250 250 250 250 249
348 19 133 162 180 217 210 203 276 283 223 173 329 333 343 96 199 233 308 328 325 318 322 325 318 315 318 320 319 312 311 317 321 324 329 333 336 342 345 345 346 343 337 339 340 337 334 334 336 336 334 335 337 337 335 333 331 329 321 293 267 262 255 244 243 247 243 236 233 236 237 235 236 239 245 249 251 250 250 250 249 249 250 250 249 249
171 152 257 210 172 135 137 190 274 269 199 85 20 3 84 179 265 306 318 318 310 311 318 317 312 316 319 317 316 315 314 316 320 323 326 326 328 333 337 339 341 340 338 338 337 336 334 332 332 334 333 333 334 335 335 332 329 325 321 315 301 289 280 266 258 259 257 248 242 240 241 241 240 238 240 245 247 247 248 248 248 248 248 248 248 248
184 167 197 228 199 136 152 206 226 194 155 113 39 285 255 273 292 303 305 301 301 310 312 308 304 306 310 312 313 313 310 312 317 322 323 321 322 325 329 332 334 334 334 334 333 332 331 328 329 332 333 332 332 334 335 332 329 326 322 317 311 305 300 289 275 268 264 260 255 247 243 242 241 239 239 240 243 244 245 245 246 247 247 246 246 246
211 186 166 199 215 183 199 231 239 234 251 280 287 272 271 288 300 298 285 285 300 306 303 302 300 299 301 305 308 309 306 305 309 316 318 317 316 317 320 323 327 329 329 328 330 330 329 328 327 330 332 332 331 332 333 332 330 328 324 321 318 313 309 305 296 284 272 265 264 259 252 246 241 239 238 237 237 239 241 242 243 244 245 245 244 245
210 177 144 151 249 285 271 257 256 265 276 283 284 279 285 296 297 287 276 285 299 301 297 296 295 293 296 298 299 301 301 298 299 304 309 310 310 311 313 313 315 322 326 325 325 326 327 326 326 327 330 331 331 332 333 333 331 328 325 325 323 317 313 310 307 301 290 276 269 266 262 255 247 242 239 236 234 235 237 239 241 242 243 243 244 245
217 180 168 167 216 290 276 249 234 246 270 283 289 290 294 296 287 280 289 299 302 299 295 292 291 290 291 291 292 294 294 292 292 294 299 303 303 303 306 306 305 312 320 323 324 325 324 322 321 324 329 332 332 332 332 332 330 327 325 325 323 318 314 313 311 307 300 287 275 271 267 262 257 251 242 235 233 234 236 238 240 241 242 243 243 244
181 176 188 201 183 205 257 263 262 272 280 286 291 293 297 297 289 291 301 305 302 298 294 291 290 289 287 285 286 288 291 290 287 287 290 294 295 295 297 298 298 303 310 315 320 322 320 319 316 317 325 332 334 334 334 331 328 325 323 322 321 317 315 314 312 310 305 293 279 275 272 267 264 260 248 238 234 235 235 236 236 238 241 244 245 245
147 161 184 187 196 251 284 279 276 282 283 279 278 286 296 300 301 303 306 305 301 298 297 295 293 291 287 283 282 285 287 286 283 282 284 285 286 286 287 288 292 298 302 306 312 314 315 315 314 312 320 332 336 338 338 333 327 324 322 320 318 315 314 313 311 309 308 302 287 279 277 274 271 266 256 246 241 241 240 240 239 240 243 248 250 250
148 171 170 141 204 258 255 252 249 255 269 267 274 290 301 306 310 309 308 307 304 301 303 303 300 295 290 284 281 282 283 282 280 280 279 278 279 280 279 280 286 293 297 299 303 307 309 309 310 312 318 327 334 342 347 341 332 327 322 319 316 313 311 310 308 306 307 308 300 287 281 278 276 271 261 250 246 247 246 244 243 244 247 251 253 253
191 205 186 177 210 234 242 248 241 227 248 269 285 297 305 312 314 310 309 307 304 303 304 304 301 297 294 289 284 281 281 282 281 279 276 274 274 275 275 274 277 284 292 294 296 301 304 304 304 308 313 319 327 336 345 346 341 334 327 321 316 311 307 306 305 304 305 308 308 300 286 279 280 279 272 258 251 250 249 246 244 244 246 248 250 251